Regional Weather Roundup
Issued by NWS

Home | Current Version | Previous Version | Graphics & Text | Print | Product List | Glossary On
Versions: 1 2 3 4 5 6 7 8 9 10 11 12 13 14 15 16 17 18 19 20 21 22 23 24 25 26 27 28 29 30 31 32 33 34 35 36 37 38 39 40 41 42 43 44 45 46 47 48 49 50
000
ASUS43 KLOT 232306
RWRIL

ILLINOIS REGIONAL WEATHER ROUNDUP
NATIONAL WEATHER SERVICE CHICAGO/ROMEOVILLE IL
600 PM CDT TUE SEP 23 2014

NOTE: "FAIR" INDICATES FEW OR NO CLOUDS BELOW 12,000 FEET WITH NO
SIGNIFICANT WEATHER AND/OR OBSTRUCTIONS TO VISIBILITY.

* THESE STATIONS ARE NOT UNDER NWS QUALITY CONTROL. THEY ALSO MAY NOT
  REPORT WEATHER SUCH AS PRECIPITATION OR FOG.

ILZ001-002-007-009-015-016-024-240000-
NORTHWEST ILLINOIS

CITY           SKY/WX    TMP DP  RH WIND       PRES   REMARKS
MOLINE         PTCLDY    71  47  42 S6        30.23S
STERLING*      PTCLDY    72  46  40 S5        30.25S
SAVANNA*       PTCLDY    73  43  34 S7        30.24S
$$

ILZ003-004-008-010-011-017-018-240000-
NORTH CENTRAL ILLINOIS

CITY           SKY/WX    TMP DP  RH WIND       PRES   REMARKS
ROCKFORD       MOCLDY    69  50  50 S3        30.27S
DE KALB*       CLEAR     65  50  57 SE5       30.28S
PERU*          PTCLDY    73  47  40 SE5       30.26S
$$

ILZ005-006-012>014-019>023-240000-
NORTHEAST ILLINOIS

CITY           SKY/WX    TMP DP  RH WIND       PRES   REMARKS
CHICAGO-OHARE  PTCLDY    73  49  42 E10       30.27S
CHICAGO-MIDWAY PTCLDY    72  50  45 E9        30.27S
AURORA         CLEAR     69  50  50 SE6       30.27S
LANSING*       CLEAR     69  50  50 E5        30.28S
JOLIET*        CLEAR     69  49  48 CALM      30.28S
WAUKEGAN       CLEAR     64  49  57 SE7       30.28R
DUPAGE AIRPORT CLEAR     70  49  47 CALM      30.27S
KANKAKEE*      CLEAR     68  52  56 E6        30.28S
WHEELING       CLEAR     70  48  45 E7        30.29R
MORRIS*        CLEAR     68  52  56 E3        30.26S
ROMEOVILLE*    CLEAR     70  47  44 CALM      30.27F
NORTHERLY ISL    N/A     65  55  70 E5          N/A
$$

LMZ740>746-240000-
SOUTHERN LAKE MICHIGAN

STATION/POSITION SKY/WX   TEMP    WIND        PRES    VSBY  WAVE
                          AIR SEA DIR/SP/G                  HT/PER
                          (F)     (DEG/KT/KT) (MB)    (MI)  (FT/S)
SOUTHERN BUOY              63 62  160/  8/  8 1025.8F         1
WAUKEGAN HARBOR            63     190/  5/  5   N/A
BURNHAM HARBOR             65     100/  3/  9   N/A
CALUMET HARBOR             66      70/  7/  9 1024.1F
MICHIGAN CITY 6N           64 64   70/  8/  8   N/A           0
ST. JOSEPH                 64 65   40/  6/  6   N/A           1
$$

ILZ025>027-034>036-040-047-049-050-058-095>099-240000-
WEST-CENTRAL ILLINOIS

CITY           SKY/WX    TMP DP  RH WIND       PRES   REMARKS
QUINCY         PTSUNNY   69  51  52 S5        30.23S
GALESBURG*     PTCLDY   N/A N/A N/A E3        30.24S
MACOMB*        MOSUNNY   69  48  46 S3        30.26R
JACKSONVILLE*  PTCLDY    74  49  41 S3        30.24S
PITTSFIELD*    PTSUNNY   72  51  47 S3        30.25S
$$

ILZ028>032-037-038-041>044-048-051>054-059>061-240000-
CENTRAL ILLINOIS

CITY           SKY/WX    TMP DP  RH WIND       PRES   REMARKS
PONTIAC        CLEAR     72  45  37 SE3       30.26S
BLOOMINGTON    PTCLDY    69  51  52 E7        30.27S
DECATUR        PTCLDY    72  46  39 E7        30.26R
PEORIA         PTCLDY    74  49  41 E3        30.24F
LACON*         MOCLDY    71  50  46 CALM      30.24F
LINCOLN*       PTCLDY    73  45  35 CALM      30.22S
SPRINGFIELD    PTCLDY    75  48  38 E6        30.24S
TAYLORVILLE    HAZE      72  46  40 E6        30.25S VSB 3/4
$$

ILZ033-039-045-046-055>057-062-063-240000-
EAST-CENTRAL ILLINOIS

CITY           SKY/WX    TMP DP  RH WIND       PRES   REMARKS
CHAMPAIGN      CLEAR     68  49  50 NE6       30.27R
DANVILLE*      CLEAR     71  49  46 E5        30.24S
RANTOUL*       CLEAR     72  46  39 CALM      30.27S
MATTOON        CLEAR     67  50  54 SE5       30.25S
PARIS*         CLEAR     71  50  48 CALM      30.27S
$$

ILZ079-100>102-240000-
SOUTHWEST ILLINOIS

CITY           SKY/WX    TMP DP  RH WIND       PRES   REMARKS
BELLEVILLE     PTCLDY    72  49  44 NE6       30.22S
CAHOKIA*       MOSUNNY   73  50  44 SE7       30.22S
SPARTA*        CLEAR     71  48  43 E6        30.24S
$$

ILZ064>066-069>071-074>076-080>082-084>086-088>090-092>094-240000-
SOUTH-CENTRAL ILLINOIS

CITY           SKY/WX    TMP DP  RH WIND       PRES   REMARKS
CARBONDALE     CLEAR     71  50  47 NE3       30.22F
CAIRO*         CLEAR     74  47  39 NE6       30.20S
EFFINGHAM*     CLEAR     69  47  44 CALM      30.26R
MARION         PTCLDY    73  46  38 NE6       30.24S
MT. VERNON     CLEAR     70  48  46 NE3       30.25S
CENTRALIA*     CLEAR     71  47  42 E3        30.24F
SALEM*         CLEAR     73  50  45 CALM      30.25S
METROPOLIS*    CLEAR     74  47  37 NE3       30.20F
$$

ILZ067-068-072-073-078-083-087-091-240000-
SOUTHEAST ILLINOIS

CITY           SKY/WX    TMP DP  RH WIND       PRES   REMARKS
LAWRENCEVILLE  CLEAR     70  50  49 E6        30.25S
FLORA*         CLEAR     72  46  40 NE6       30.25S
FAIRFIELD*     CLEAR    N/A N/A N/A CALM      30.23F
HARRISBURG*    CLEAR     73  46  38 NE6       30.24S
ROBINSON*      CLEAR     70  53  55 E6        30.27R
CARMI*         CLEAR     73  49  41 NE3       30.23S
$$

ABBREVIATIONS USED IN REMARKS
   TC - TEMPERATURE IN CELSIUS
  WCI - WIND CHILL INDEX
   HX - HEAT INDEX
  VSB - VISIBILITY
$$



USA.gov is the U.S. government's official web portal to all federal, state and local government web resources and services.